Weather History for Rome Ciampino, Italy

Change the Weather History Date:

Tuesday, October 23, 2012

  Actual Average Record
Temperature  
Mean Temperature 68 °F -  
Max Temperature 75 °F 63 °F 77 °F (2013)
Min Temperature 60 °F 46 °F 41 °F (2007)
Cooling Degree Days 2    
Growing Degree Days 18 (Base 50)    
Moisture  
Dew Point 64 °F    
Average Humidity 89    
Maximum Humidity 94    
Minimum Humidity 69    
Precipitation  
Precipitation 0.00 in 0.16 in - ()
Sea Level Pressure  
Sea Level Pressure 30.02 in    
Wind  
Wind Speed 3 mph ()    
Max Wind Speed 8 mph    
Max Gust Speed -    
Visibility 6.0 miles    
Events      
Averages and records for this station are not official NWS values.
T = Trace of Precipitation, MM = Missing Value Source: Averaged Metar Reports

Daily Weather History Graph

Daily Weather History Graph

Search for Another Location

Airport:

Trip Planner

Search our weather history database for the weather conditions in past years. The results will help you decide how hot, cold, wet, or windy it might be!

Date:

Astronomy

Oct. 23, 2012 Rise Set
Actual Time 7:31 AM CEST 6:15 PM CEST
Civil Twilight 7:02 AM CEST 6:44 PM CEST
Nautical Twilight 6:30 AM CEST 7:16 PM CEST
Astronomical Twilight 5:58 AM CEST 7:48 PM CEST
Moon 2:54 PM CEST (10/23) 12:59 AM CEST (10/23)
Length of Visible Light 11h 41m
Length of Day
10h 44m
Waxing Gibbous, 64% of the Moon is Illuminated
Oct 23
Waxing Gibbous
Oct 29
Full
Nov 7
Last Quarter
Nov 13
New
Nov 20
First Quarter

Hourly Weather History & Observations

Time (CEST) Temp. Dew Point Humidity Pressure Visibility Wind Dir Wind Speed Gust Speed Precip Events Conditions
12:15 AM 66.2 °F 64.4 °F 94% 30.04 in 6.2 mi East 3.5 mph - N/A   Scattered Clouds
12:45 AM 66.2 °F 64.4 °F 94% 30.01 in 6.2 mi SE 3.5 mph - N/A   Scattered Clouds
1:15 AM 66.2 °F 64.4 °F 94% 30.01 in 6.2 mi SSE 2.3 mph - N/A   Mostly Cloudy
1:45 AM 66.2 °F 64.4 °F 94% 30.01 in 6.2 mi Calm Calm - N/A   Mostly Cloudy
2:15 AM 66.2 °F 64.4 °F 94% 30.01 in 6.2 mi East 1.2 mph - N/A   Mostly Cloudy
2:45 AM 66.2 °F 64.4 °F 94% 30.01 in 6.2 mi Calm Calm - N/A   Mostly Cloudy
3:15 AM 66.2 °F 64.4 °F 94% 30.01 in 6.2 mi Calm Calm - N/A   Mostly Cloudy
3:45 AM 64.4 °F 62.6 °F 94% 30.01 in 6.2 mi East 4.6 mph - N/A   Partly Cloudy
4:15 AM 64.4 °F 62.6 °F 94% 30.01 in 6.2 mi East 4.6 mph - N/A   Partly Cloudy
4:45 AM 62.6 °F 60.8 °F 94% 30.01 in 6.2 mi NE 2.3 mph - N/A   Partly Cloudy
5:15 AM 62.6 °F 60.8 °F 94% 30.01 in 6.2 mi NE 2.3 mph - N/A   Partly Cloudy
5:45 AM 62.6 °F 59.0 °F 88% 30.01 in 6.2 mi NNE 2.3 mph - N/A   Partly Cloudy
6:15 AM 60.8 °F 57.2 °F 88% 30.01 in 6.2 mi ENE 2.3 mph - N/A   Partly Cloudy
6:45 AM 60.8 °F 59.0 °F 94% 30.01 in 6.2 mi Calm Calm - N/A   Partly Cloudy
7:15 AM 60.8 °F 59.0 °F 94% 30.01 in 6.2 mi NE 1.2 mph - N/A   Partly Cloudy
7:45 AM 60.8 °F 59.0 °F 94% 30.01 in 6.2 mi NE 2.3 mph - N/A   Partly Cloudy
8:15 AM 60.8 °F 59.0 °F 94% 30.01 in 6.2 mi Calm Calm - N/A   Partly Cloudy
8:45 AM 60.8 °F 59.0 °F 94% 30.01 in 6.2 mi ENE 1.2 mph - N/A   Partly Cloudy
9:15 AM 62.6 °F 59.0 °F 88% 30.01 in 6.2 mi North 1.2 mph - N/A   Partly Cloudy
9:45 AM 66.2 °F 64.4 °F 94% 30.01 in 6.2 mi NNW 1.2 mph - N/A   Partly Cloudy
10:15 AM 66.2 °F 62.6 °F 88% 30.04 in 6.2 mi NE 4.6 mph - N/A   Scattered Clouds
10:45 AM 68.0 °F 64.4 °F 88% 30.04 in 6.2 mi ENE 3.5 mph - N/A   Partly Cloudy
11:15 AM 69.8 °F 66.2 °F 88% 30.04 in 6.2 mi NNE 3.5 mph - N/A   Partly Cloudy
11:45 AM 71.6 °F 66.2 °F 83% 30.04 in 6.2 mi NNE 2.3 mph - N/A   Scattered Clouds
12:15 PM 73.4 °F 68.0 °F 83% 30.04 in 6.2 mi NNE 1.2 mph - N/A   Scattered Clouds
12:45 PM 73.4 °F 66.2 °F 78% 30.04 in 6.2 mi NE 2.3 mph - N/A   Scattered Clouds
1:15 PM 73.4 °F 66.2 °F 78% 30.04 in 6.2 mi NNW 1.2 mph - N/A   Scattered Clouds
2:15 PM 75.2 °F 64.4 °F 69% 30.01 in 6.2 mi SSW 8.1 mph - N/A   Mostly Cloudy
2:45 PM 75.2 °F 68.0 °F 78% 30.01 in 6.2 mi SW 8.1 mph - N/A   Mostly Cloudy
3:15 PM 75.2 °F 68.0 °F 78% 30.01 in 6.2 mi WSW 5.8 mph - N/A   Mostly Cloudy
3:45 PM 75.2 °F 68.0 °F 78% 30.01 in 6.2 mi SW 5.8 mph - N/A   Mostly Cloudy
4:15 PM 75.2 °F 68.0 °F 78% 30.01 in 6.2 mi SSW 6.9 mph - N/A   Scattered Clouds
4:45 PM 73.4 °F 66.2 °F 78% 30.01 in 6.2 mi South 6.9 mph - N/A   Scattered Clouds
5:15 PM 73.4 °F 68.0 °F 83% 30.01 in 6.2 mi SSW 4.6 mph - N/A   Partly Cloudy
5:45 PM 71.6 °F 68.0 °F 88% 30.01 in 6.2 mi SW 4.6 mph - N/A   Partly Cloudy
6:15 PM 69.8 °F 68.0 °F 94% 30.01 in 5.6 mi SW 5.8 mph - N/A   Scattered Clouds
6:45 PM 69.8 °F 66.2 °F 88% 30.01 in 5.0 mi SSW 3.5 mph - N/A   Scattered Clouds
7:15 PM 69.8 °F 66.2 °F 88% 30.01 in 5.0 mi South 5.8 mph - N/A   Scattered Clouds
7:45 PM 68.0 °F 66.2 °F 94% 30.01 in 5.0 mi South 5.8 mph - N/A   Scattered Clouds
8:15 PM 68.0 °F 66.2 °F 94% 30.01 in 5.0 mi South 5.8 mph - N/A   Scattered Clouds
8:45 PM 68.0 °F 64.4 °F 88% 30.01 in 5.6 mi South 3.5 mph - N/A   Partly Cloudy
9:15 PM 66.2 °F 64.4 °F 94% 30.01 in 5.6 mi East 5.8 mph - N/A   Partly Cloudy
9:45 PM 66.2 °F 62.6 °F 88% 30.01 in 5.0 mi NNE 2.3 mph - N/A   Partly Cloudy
10:15 PM 66.2 °F 62.6 °F 88% 30.01 in 5.0 mi NE 3.5 mph - N/A   Scattered Clouds
10:45 PM 64.4 °F 62.6 °F 94% 30.01 in 5.6 mi ENE 4.6 mph - N/A   Scattered Clouds
11:15 PM 64.4 °F 62.6 °F 94% 30.01 in 5.6 mi ENE 4.6 mph - N/A   Partly Cloudy
11:45 PM 64.4 °F 60.8 °F 88% 30.01 in - ENE 3.5 mph - N/A   Clear